{"data":{"norad_id":27939,"intl_designator":"2003-042A","name":"MOZHAETS 4 (RS22)","alt_names":[],"object_type":"PAYLOAD","status":"ACTIVE","operator":null,"country":"CIS","launch_date":"2003-09-27","launch_site_code":"PLMSC","launch_vehicle":null,"mission":null,"orbit_class":"UNKNOWN","rcs_meters":0.687,"size_class":null,"mass_kg":null,"dimensions":null,"purposes":["comms"],"wikipedia_slug":null,"has_3d_model":false,"image_url":null,"decayed_at":null,"tle_current":{"epoch":"2026-09-19T22:58:39.747072Z","epoch_age_seconds":61401,"freshness":"FRESH","line1":"1 27939U 03042A   26262.95740448  .00000468  00000+0  80150-4 0  9993","line2":"2 27939  98.3485  90.0230 0010806 334.7065 185.7707 14.73605442229505","mean_motion":14.73605442,"eccentricity":0.0010806,"inclination_deg":98.3485,"raan_deg":90.023,"arg_perigee_deg":334.7065,"mean_anomaly_deg":185.7707,"bstar":8.015e-5,"rev_number":22950,"period_min":97.719508829013,"perigee_km":641.98744939903,"apogee_km":657.17575484193,"semimajor_km":7027.7186021205,"source":"CELESTRAK","updated_at":"2026-09-20T09:00:45.229174Z"}}}